Home   Weather   Giessen   Past weeks

Flag for Germany Past Weather in Giessen, Hesse, Germany — Yesterday and Last 2 Weeks

52 °F

Light rain. Fog.

Feels Like: 52 °F
Forecast: 40 / 52 °F
Wind: 2 mph from Southwest

Location: Frankfurt-M-Flughafen Airport

Current Time: Oct 25, 2016 at 5:15:33 AM

Latest Report: Oct 25, 2016 at 4:20 AM

Visibility: 2 mi

Pressure: 30.04 "Hg

Humidity: 94%

Dew Point: 50 °F

Location of GiessenLocation

Past Weather in Giessen — Graph


Giessen Temperature Yesterday

Maximum temperature yesterday: 52 °F (at 3:20 PM)
Minimum temperature yesterday: 46 °F (at 3:50 AM)
Average temperature yesterday: 50 °F

High & Low Weather Summary for the Past Weeks

High64 °F (Oct 16, 3:50 PM)100% (Oct 15, 5:20 AM)30.24 "Hg (Oct 15, 5:20 AM)
Low39 °F (Oct 13, 2:20 AM)51% (Oct 11, 1:50 PM)29.65 "Hg (Oct 14, 7:20 PM)
Average49 °F86%30.01 "Hg
* Reported Oct 10 3:20 AM — Oct 25 3:50 AM, Giessen, Weather by CustomWeather, © 2016

Note: Actual official high and low records may vary slightly from our data, if they occured in-between our weather recording intervals... More about our weather records


Giessen Weather History for the Previous 24 Hours

Scroll right to see more
Time TempWeatherWind HumidityBarometerVisibility
3:50 AM
Tue, Oct 25
52 °FRain. Fog.3 mph94%30.04 "Hg3 mi
3:20 AM52 °FLight rain. Fog.No wind94%30.01 "Hg3 mi
2:50 AM52 °FLight rain. Partly cloudy.2 mph94%30.01 "Hg4 mi
2:20 AM52 °FLight rain. Partly cloudy.1 mph94%30.01 "Hg4 mi
1:20 AM52 °FLight rain. Partly cloudy.2 mph100%29.98 "HgN/A
12:50 AM52 °FPartly cloudy.2 mph94%29.98 "HgN/A
12:20 AM52 °FLight rain. Partly cloudy.3 mph100%29.98 "Hg6 mi
11:50 PM
Mon, Oct 24
52 °FLight rain. Passing clouds.2 mph100%29.98 "HgN/A
11:20 PM52 °FLight rain. Passing clouds.No wind100%29.98 "HgN/A
10:50 PM52 °FLight rain. Partly cloudy.2 mph94%29.98 "HgN/A
10:20 PM52 °FLight rain. Passing clouds.3 mph94%29.95 "HgN/A
9:50 PM52 °FLight rain. Passing clouds.5 mph94%29.95 "HgN/A
9:20 PM52 °FLight rain. Partly cloudy.2 mph94%29.95 "HgN/A
8:50 PM52 °FRain. Passing clouds.3 mph94%29.95 "Hg5 mi
8:20 PM52 °FLight rain. Partly cloudy.1 mph94%29.95 "HgN/A
7:50 PM52 °FLight rain. Passing clouds.2 mph100%29.95 "HgN/A
7:20 PM52 °FLight rain. Passing clouds.3 mph94%29.92 "HgN/A
6:50 PM52 °FPassing clouds.2 mph94%29.92 "HgN/A
6:20 PM52 °FLight rain. Passing clouds.5 mph94%29.92 "HgN/A
5:50 PM52 °FBroken clouds.3 mph94%29.92 "HgN/A
5:20 PM52 °FDrizzle. Broken clouds.5 mph94%29.89 "Hg5 mi
4:50 PM52 °FDrizzle. Broken clouds.5 mph94%29.89 "Hg2 mi
4:20 PM52 °FLight rain. Broken clouds.7 mph94%29.89 "HgN/A
3:50 PM52 °FLight rain. Broken clouds.6 mph94%29.89 "Hg5 mi
3:20 PM52 °FRain. Partly sunny.5 mph94%29.89 "Hg3 mi
2:50 PM50 °FLight rain. Mostly cloudy.6 mph100%29.89 "Hg4 mi
2:20 PM50 °FRain. Fog.8 mph100%29.89 "Hg2 mi
1:50 PM50 °FRain. Fog.5 mph94%29.89 "Hg1 mi
1:20 PM50 °FRain. Fog.7 mph94%29.89 "Hg2 mi
12:50 PM50 °FRain. Fog.7 mph94%29.89 "Hg1 mi
12:20 PM50 °FLight rain. Fog.8 mph94%29.92 "Hg3 mi
11:50 AM48 °FRain. Fog.10 mph100%29.92 "Hg2 mi
11:20 AM48 °FRain. Broken clouds.10 mph100%29.92 "Hg2 mi
10:50 AM48 °FRain. Mostly cloudy.7 mph94%29.92 "Hg2 mi
10:20 AM48 °FLight rain. Mostly cloudy.6 mph94%29.92 "Hg4 mi
9:50 AM48 °FLight rain. Mostly cloudy.6 mph94%29.92 "Hg4 mi
9:20 AM48 °FLight rain. Mostly cloudy.6 mph94%29.92 "Hg4 mi
8:50 AM48 °FLight rain. More clouds than sun.9 mph94%29.92 "Hg4 mi
8:20 AM48 °FLight rain. More clouds than sun.8 mph94%29.92 "Hg5 mi
7:50 AM48 °FLight rain. Passing clouds.8 mph94%29.92 "Hg5 mi
7:20 AM48 °FPartly cloudy.7 mph94%29.92 "HgN/A
6:50 AM48 °FMostly cloudy.6 mph94%29.89 "Hg6 mi
6:20 AM48 °FOvercast.7 mph94%29.89 "Hg6 mi
5:50 AM48 °FPartly cloudy.7 mph94%29.89 "Hg6 mi
5:20 AM46 °FLight rain. Partly cloudy.5 mph93%29.89 "Hg6 mi
Weather by CustomWeather, © 2016

See weather overviewHow to use our weather pages